Ketchikan, AK

10:26 PM AKDT on September 22, 2018 (GMT -0800)
Ketchikan International

Weather History for PAKT - November, 2017

Change the Weather History Date:

Thursday, November 2, 2017

  Actual Average Record
Temperature  
Mean Temperature 36 °F -  
Max Temperature 43 °F 48 °F 65 °F (1949)
Min Temperature 30 °F 38 °F 26 °F (2003)
Degree Days  
Heating Degree Days 29    
Moisture  
Dew Point 9 °F    
Average Humidity 34    
Maximum Humidity 47    
Minimum Humidity 19    
Precipitation  
Precipitation 0.00 in - - ()
Sea Level Pressure  
Sea Level Pressure 30.39 in    
Wind  
Wind Speed 7 mph (NW)    
Max Wind Speed 15 mph    
Max Gust Speed 23 mph    
Visibility 10 miles    
Events      
Averages and records for this station are not official NWS values.
T = Trace of Precipitation, MM = Missing Value Source: NWS Daily Summary

Daily Weather History Graph

Daily Weather History Graph

Search for Another Location

Airport or City:

Astronomy

Nov. 02, 2017 Rise Set
Actual Time 7:54 AM AKDT 5:05 PM AKDT
Civil Twilight 7:15 AM AKDT 5:44 PM AKDT
Nautical Twilight 6:32 AM AKDT 6:27 PM AKDT
Astronomical Twilight 5:49 AM AKDT 7:10 PM AKDT
Moon 5:05 PM AKDT (11/2) 5:27 AM AKDT (11/2)
Length of Visible Light 10h 28m
Length of Day
9h 10m
Waxing Gibbous, 97% of the Moon is Illuminated
Nov 2
Waxing Gibbous
Nov 3
Full
Nov 10
Last Quarter
Nov 18
New
Nov 26
First Quarter

Hourly Weather History & Observations

Time (AKDT) Temp. Windchill Dew Point Humidity Pressure Visibility Wind Dir Wind Speed Gust Speed Precip Events Conditions
12:53 AM 37.0 °F 33.3 °F 12.9 °F 37% 30.31 in 10.0 mi NW 4.6 mph - N/A   Clear
1:53 AM 34.0 °F 29.8 °F 10.0 °F 37% 30.34 in 10.0 mi NW 4.6 mph - N/A   Clear
2:53 AM 34.0 °F 28.8 °F 10.0 °F 37% 30.35 in 10.0 mi NW 5.8 mph - N/A   Clear
3:53 AM 34.0 °F 29.8 °F 10.9 °F 38% 30.35 in 10.0 mi NW 4.6 mph - N/A   Clear
4:53 AM 36.0 °F 32.1 °F 9.0 °F 33% 30.36 in 10.0 mi Variable 4.6 mph - N/A   Clear
5:53 AM 34.0 °F 28.8 °F 9.0 °F 35% 30.37 in 10.0 mi NNW 5.8 mph - N/A   Clear
6:10 AM 35.1 °F 30.1 °F 9.0 °F 34% 30.37 in 10.0 mi NNW 5.8 mph - N/A   Clear
6:53 AM 33.8 °F 29.6 °F 8.6 °F 35% 30.38 in 10.0 mi NW 4.6 mph - N/A   Clear
7:53 AM 34.0 °F 27.2 °F 9.0 °F 35% 30.39 in 10.0 mi WNW 8.1 mph - N/A   Clear
8:53 AM 35.6 °F 28.6 °F 6.8 °F 30% 30.40 in 10.0 mi NW 9.2 mph - N/A   Clear
9:53 AM 37.4 °F 29.8 °F 8.6 °F 30% 30.41 in 10.0 mi NNW 11.5 mph - N/A   Clear
10:53 AM 39.2 °F 30.8 °F 3.2 °F 22% 30.41 in 10.0 mi NNW 15.0 mph 23.0 mph N/A   Clear
11:53 AM 41.0 °F 33.1 °F 3.2 °F 21% 30.41 in 10.0 mi NNW 15.0 mph 21.9 mph N/A   Clear
12:53 PM 42.8 °F 36.2 °F 3.2 °F 19% 30.41 in 10.0 mi NNW 12.7 mph 23.0 mph N/A   Clear
1:53 PM 42.1 °F 35.7 °F 3.0 °F 20% 30.40 in 10.0 mi North 11.5 mph 20.7 mph N/A   Clear
2:53 PM 42.8 °F 37.5 °F 3.2 °F 19% 30.40 in 10.0 mi North 9.2 mph - N/A   Clear
3:53 PM 41.0 °F 33.5 °F 7.0 °F 25% 30.41 in 10.0 mi NNW 13.8 mph - N/A   Clear
4:53 PM 39.9 °F 32.5 °F 9.0 °F 28% 30.41 in 10.0 mi NNW 12.7 mph - N/A   Clear
5:53 PM 36.0 °F 33.3 °F 14.0 °F 41% 30.41 in 10.0 mi Variable 3.5 mph - N/A   Clear
6:53 PM 35.1 °F 30.1 °F 14.0 °F 42% 30.42 in 10.0 mi NW 5.8 mph - N/A   Clear
7:53 PM 33.1 °F 30.0 °F 10.9 °F 40% 30.43 in 10.0 mi West 3.5 mph - N/A   Clear
8:53 PM 30.9 °F - 12.9 °F 47% 30.42 in 10.0 mi Calm Calm - N/A   Clear
9:53 PM 34.0 °F 28.8 °F 15.1 °F 46% 30.43 in 10.0 mi WNW 5.8 mph - N/A   Clear
10:53 PM 33.1 °F - 12.9 °F 43% 30.42 in 10.0 mi Calm Calm - N/A   Clear
11:53 PM 32.0 °F - 12.0 °F 44% 30.40 in 10.0 mi Calm Calm - N/A   Clear